(250898) = 2005 VL82

Discovered at Socorro on 2005-11-13 by LINEAR.

Orbit

Orbit type: Main Belt

Note: WebGL enabled browser required.

epoch2024-03-31.0
epoch JD2460400.5
perihelion date2022-05-28.26506
perihelion JD2459727.76506
argument of perihelion (°)78.88201
ascending node (°)306.68588
inclination (°)24.74483
eccentricity0.2360217
perihelion distance (AU)2.4258181
Tisserand w.r.t. Jupiter3.0
ΔV w.r.t. Earth (km/sec)12.3
semimajor axis (AU)3.1752448
mean anomaly (°)117.18769
mean daily motion (°/day)0.17419590
aphelion distance (AU)3.925
period (years)5.66
P-vector [x]0.82982470
P-vector [y]0.18320717
P-vector [z]0.52709212
Q-vector [x]-0.44577862
Q-vector [y]0.78582602
Q-vector [z]0.42867107
absolute magnitude15.27
phase slope0.15
uncertainty0
referenceMPEC 2024-E11
observations used335
oppositions13
arc length (days)8857
first opposition used1999
last opposition used2024
residual rms (arc-secs)0.68
perturbers coarse indicatorM-v
perturbers precise indicator003Ek
first observation date used1999-10-16.0
last observation date used2024-01-15.0
computer nameMPCLINUX
JD of orbit computation2455988.780578
perihelion JD uncertainty (days)4.1262E-04
argument of perihelion uncertainty (°)1.0029E-04
ascending node uncertainty (°)2.7768E-05
inclination uncertainty (°)1.8668E-05
eccentricity uncertainty 1.1709E-07
perihelion distance uncertainty (AU)3.9126E-07
Minimum Orbit Intersection Distances (in AU)
for orbit epoch: 2460400.5, reference: E2024-G51
Mercury2.13352
Venus1.80827
Earth1.56021
Mars1.23076
Jupiter2.0576
Saturn5.89216
Uranus14.9367
Neptune26.9846

Observations

339 total observations over interval: 1999 10 16.17826 – 2024 01 15.428754
These data are available for download (format description).

Date (UT) J2000 RA J2000 Dec Magn Location Ref
1999 10 16.17826 23 39 07.44 +40 19 08.6 19.0   704 – Lincoln Laboratory ETS, New Mexico MPS 168853
1999 10 16.19475 23 39 06.53 +40 19 03.9 19.8   704 – Lincoln Laboratory ETS, New Mexico MPS 168853
1999 10 16.21119 23 39 05.57 +40 19 00.1 19.5   704 – Lincoln Laboratory ETS, New Mexico MPS 168853
1999 10 16.22675 23 39 04.73 +40 18 55.2 19.4   704 – Lincoln Laboratory ETS, New Mexico MPS 168853
1999 10 16.24262 23 39 03.89 +40 18 51.7 19.3   704 – Lincoln Laboratory ETS, New Mexico MPS 168853
1999 11 01.17085 23 29 16.03 +38 36 50.1 19.4   704 – Lincoln Laboratory ETS, New Mexico MPS 168853
1999 11 01.18706 23 29 15.55 +38 36 43.4 19.4   704 – Lincoln Laboratory ETS, New Mexico MPS 168853
1999 11 01.20341 23 29 15.25 +38 36 34.5 20.0   704 – Lincoln Laboratory ETS, New Mexico MPS 168853
1999 11 01.21959 23 29 14.96 +38 36 28.7 20.0   704 – Lincoln Laboratory ETS, New Mexico MPS 168853
1999 11 01.23583 23 29 14.56 +38 36 19.8 19.8   704 – Lincoln Laboratory ETS, New Mexico MPS 168853
2001 01 21.32975 09 07 36.59 +13 36 31.4 20.0   704 – Lincoln Laboratory ETS, New Mexico MPS 168853
2001 01 21.34490 09 07 35.73 +13 36 30.5 19.2   704 – Lincoln Laboratory ETS, New Mexico MPS 168853
2001 01 21.36005 09 07 34.75 +13 36 28.8 19.2   704 – Lincoln Laboratory ETS, New Mexico MPS 168853
2004 07 11.23633 20 30 45.21 -24 31 58.1 19.3   704 – Lincoln Laboratory ETS, New Mexico MPS 168853
2004 07 11.24682 20 30 44.66 -24 31 55.5 19.7   704 – Lincoln Laboratory ETS, New Mexico MPS 168853
2004 07 11.25746 20 30 43.93 -24 31 54.5 19.3   704 – Lincoln Laboratory ETS, New Mexico MPS 168853
2004 07 11.26806 20 30 43.26 -24 31 52.3 19.5   704 – Lincoln Laboratory ETS, New Mexico MPS 168853
2004 07 11.27923 20 30 42.60 -24 31 50.5 19.1   704 – Lincoln Laboratory ETS, New Mexico MPS 168853
2005 11 13.31525 05 01 34.80 +55 46 45.9 19.1   704 – Lincoln Laboratory ETS, New Mexico MPS 151241
2005 11 13.33998 05 01 33.10 +55 46 44.7 19.4   704 – Lincoln Laboratory ETS, New Mexico MPS 151241
2005 11 13.35232 05 01 32.21 +55 46 44.3 19.7   704 – Lincoln Laboratory ETS, New Mexico MPS 151241
2005 11 22.28136 04 50 47.20 +55 30 03.8 19.7   704 – Lincoln Laboratory ETS, New Mexico MPS 151241
2005 11 22.29428 04 50 46.15 +55 30 01.8 19.9   704 – Lincoln Laboratory ETS, New Mexico MPS 151241
2005 11 22.30735 04 50 45.03 +55 29 58.4 19.9   704 – Lincoln Laboratory ETS, New Mexico MPS 151241
2005 11 22.32061 04 50 43.97 +55 29 55.1 19.9   704 – Lincoln Laboratory ETS, New Mexico MPS 151241
2005 11 26.19999 04 45 34.15 +55 13 13.7 19.6   704 – Lincoln Laboratory ETS, New Mexico MPS 152345
2005 11 26.21272 04 45 33.08 +55 13 10.2 18.8   704 – Lincoln Laboratory ETS, New Mexico MPS 152345
2005 11 26.22584 04 45 32.00 +55 13 06.3 19.0   704 – Lincoln Laboratory ETS, New Mexico MPS 152345
2005 11 26.23876 04 45 30.89 +55 13 02.7 19.5   704 – Lincoln Laboratory ETS, New Mexico MPS 152345
2006 01 21.15395 04 07 03.03 +44 06 03.1 19.8   704 – Lincoln Laboratory ETS, New Mexico MPS 160488
2006 01 21.19305 04 07 03.65 +44 05 31.7 20.3   704 – Lincoln Laboratory ETS, New Mexico MPS 160488
2006 01 21.20586 04 07 03.87 +44 05 21.1 20.0   704 – Lincoln Laboratory ETS, New Mexico MPS 160488
2010 05 27.41465 22 28 26.60 -05 03 13.5   C51 – WISE MPS 329162
2010 05 27.546948 22 28 31.96 -05 01 39.9   C51 – WISE MPS 329162
2010 05 27.679252 22 28 37.17 -05 00 03.4   C51 – WISE MPS 329162
2010 05 27.811557 22 28 43.02 -04 58 31.5   C51 – WISE MPS 329162
2010 05 27.877645 22 28 45.67 -04 57 43.5   C51 – WISE MPS 329162
2010 05 27.943861 22 28 48.45 -04 56 56.9   C51 – WISE MPS 329162
2010 05 28.009949 22 28 51.08 -04 56 09.8   C51 – WISE MPS 329162
2010 05 28.076164 22 28 53.83 -04 55 22.6   C51 – WISE MPS 329162
2010 05 28.14225 22 28 56.58 -04 54 35.4   C51 – WISE MPS 329162
2010 05 28.208469 22 28 59.28 -04 53 48.6   C51 – WISE MPS 329162
2010 05 28.274557 22 29 01.97 -04 53 01.1   C51 – WISE MPS 329162
2010 05 28.40686 22 29 07.35 -04 51 28.4   C51 – WISE MPS 329162
2010 05 28.539164 22 29 12.75 -04 49 53.4   C51 – WISE MPS 329162
2010 05 28.671468 22 29 18.12 -04 48 19.0   C51 – WISE MPS 329162
2010 05 28.803772 22 29 23.46 -04 46 44.0   C51 – WISE MPS 329162
2010 06 13.42263 22 37 54.12 -01 40 42.5 20.1 V G96 – Mt. Lemmon Survey MPS 331923
2010 06 13.42853 22 37 54.22 -01 40 38.0 19.9 V G96 – Mt. Lemmon Survey MPS 331923
2010 06 13.43454 22 37 54.40 -01 40 33.9 19.8 V G96 – Mt. Lemmon Survey MPS 331923
2010 06 13.44118 22 37 54.55 -01 40 28.9 20.1 V G96 – Mt. Lemmon Survey MPS 331924
2010 06 20.42710 22 40 16.03 -00 17 22.2 19.5 V 703 – Catalina Sky Survey MPS 333573
2010 06 20.43406 22 40 16.14 -00 17 19.2 20.3 V 703 – Catalina Sky Survey MPS 333573
2010 06 20.44095 22 40 16.28 -00 17 11.9 19.5 V 703 – Catalina Sky Survey MPS 333573
2010 06 20.44792 22 40 16.32 -00 17 08.6 20.1 V 703 – Catalina Sky Survey MPS 333573
2010 08 08.32732 22 24 56.15 +08 20 09.1 18.9   704 – Lincoln Laboratory ETS, New Mexico MPS 343727
2010 08 08.33911 22 24 55.50 +08 20 15.4 19.5   704 – Lincoln Laboratory ETS, New Mexico MPS 343727
2010 08 08.35095 22 24 54.83 +08 20 20.7 19.8   704 – Lincoln Laboratory ETS, New Mexico MPS 343727
2010 08 08.36279 22 24 54.18 +08 20 26.3 19.5   704 – Lincoln Laboratory ETS, New Mexico MPS 343727
2010 08 08.37462 22 24 53.53 +08 20 31.6 19.2   704 – Lincoln Laboratory ETS, New Mexico MPS 343727
2010 08 13.33010 22 20 14.69 +08 57 49.4 19.6 R I41 – Palomar Mountain--ZTF MPS 1426405
2010 08 13.37375 22 20 12.05 +08 58 07.9 19.0 R I41 – Palomar Mountain--ZTF MPS 1426405
2010 09 02.83337 21 58 34.54 +10 40 44.7 18.3 V J75 – OAM Observatory, La Sagra MPS 346303
2010 09 02.84609 21 58 33.75 +10 40 47.0 18.4 V J75 – OAM Observatory, La Sagra MPS 346303
2010 09 02.85877 21 58 32.93 +10 40 49.0 18.4 V J75 – OAM Observatory, La Sagra MPS 346303
2010 09 03.91063 21 57 26.07 +10 43 46.4 16.8 V A50 – Andrushivka Astronomical Observatory MPS 347114
2010 09 03.92719 21 57 25.03 +10 43 48.2 17.0 V A50 – Andrushivka Astronomical Observatory MPS 347114
2010 09 03.94375 21 57 24.00 +10 43 50.0 17.4 V A50 – Andrushivka Astronomical Observatory MPS 347114
2010 09 06.18530 21 55 04.47 +10 49 28.3 18.6 V G96 – Mt. Lemmon Survey MPS 347114
2010 09 06.18588 21 55 04.44 +10 49 28.3 18.8 V G96 – Mt. Lemmon Survey MPS 347114
2010 09 06.19166 21 55 04.08 +10 49 29.2 18.6 V G96 – Mt. Lemmon Survey MPS 347114
2010 09 06.19223 21 55 04.04 +10 49 29.0 18.7 V G96 – Mt. Lemmon Survey MPS 347114
2010 09 06.19799 21 55 03.68 +10 49 30.0 18.5 V G96 – Mt. Lemmon Survey MPS 347114
2010 09 06.19857 21 55 03.64 +10 49 30.0 18.6 V G96 – Mt. Lemmon Survey MPS 347114
2010 09 06.20424 21 55 03.28 +10 49 30.9 18.5 V G96 – Mt. Lemmon Survey MPS 347114
2010 09 06.20481 21 55 03.25 +10 49 30.9 18.6 V G96 – Mt. Lemmon Survey MPS 347114
2010 09 06.24650 21 55 00.68 +10 49 37.7 18.3   704 – Lincoln Laboratory ETS, New Mexico MPS 347114
2010 09 06.26999 21 54 59.22 +10 49 39.9 19.0   704 – Lincoln Laboratory ETS, New Mexico MPS 347114
2010 09 06.28175 21 54 58.42 +10 49 42.2 19.4   704 – Lincoln Laboratory ETS, New Mexico MPS 347114
2010 09 06.29358 21 54 57.62 +10 49 43.6 19.4   704 – Lincoln Laboratory ETS, New Mexico MPS 347114
2010 11 04.12903 21 36 58.43 +10 43 38.8 19.3   704 – Lincoln Laboratory ETS, New Mexico MPS 355161
2010 11 04.14151 21 36 58.83 +10 43 38.6 19.8   704 – Lincoln Laboratory ETS, New Mexico MPS 355161
2010 11 04.17898 21 36 59.90 +10 43 39.7 20.2   704 – Lincoln Laboratory ETS, New Mexico MPS 355161
2011 11 30.63724 08 24 45.203 +33 05 11.69 19.7 z F51 – Pan-STARRS 1, Haleakala MPS 403720
2011 11 30.64500 08 24 45.035 +33 05 10.72 19.7 z F51 – Pan-STARRS 1, Haleakala MPS 403720
2011 12 24.22254 08 08 25.69 +32 19 51.6 19.0 V 703 – Catalina Sky Survey MPS 405810
2011 12 24.23054 08 08 25.22 +32 19 50.4 19.0 V 703 – Catalina Sky Survey MPS 405810
2011 12 24.23858 08 08 24.75 +32 19 49.4 19.8 V 703 – Catalina Sky Survey MPS 405810
2011 12 24.24663 08 08 24.25 +32 19 47.8 19.4 V 703 – Catalina Sky Survey MPS 405810
2011 12 24.25471 08 08 23.71 +32 19 46.9 19.6 V 703 – Catalina Sky Survey MPS 405810
2011 12 29.33567 08 02 58.77 +32 05 40.4 19.1 V G96 – Mt. Lemmon Survey MPS 405810
